| time (UTC) | temp F | wind direction | speed knots | gust knots | rain 1hr in | rain 24hr in | rain mn in | humidity % | barometer mb |
| 20260506155559 | 51 | 341 | 0.9 | 3.5 | 0.00 | 1.70 | 0.60 | 75 | 1011.3 |
| 20260506155100 | 51 | 283 | 0.0 | 3.5 | 0.00 | 1.70 | 0.60 | 74 | 1011.1 |
| 20260506154600 | 51 | 285 | 0.0 | 2.6 | 0.00 | 1.70 | 0.60 | 75 | 1011.1 |
| 20260506154101 | 51 | 7 | 0.0 | 2.6 | 0.00 | 1.70 | 0.60 | 76 | 1010.9 |
| 20260506153601 | 51 | 354 | 0.0 | 2.6 | 0.00 | 1.70 | 0.60 | 76 | 1010.9 |
| 20260506153134 | 50 | 326 | 0.9 | 2.6 | 0.00 | 1.70 | 0.60 | 78 | 1010.8 |
| 20260506152602 | 50 | 6 | 0.9 | 2.6 | 0.00 | 1.70 | 0.60 | 77 | 1010.8 |
| 20260506152059 | 50 | 262 | 0.9 | 2.6 | 0.00 | 1.70 | 0.60 | 77 | 1010.8 |
| 20260506151558 | 49 | 233 | 0.0 | 1.7 | 0.00 | 1.70 | 0.60 | 79 | 1010.7 |
| 20260506151101 | 49 | 262 | 0.0 | 1.7 | 0.00 | 1.70 | 0.60 | 80 | 1010.7 |
| 20260506150559 | 49 | 314 | 0.0 | 1.7 | 0.00 | 1.70 | 0.60 | 79 | 1010.6 |
| 20260506150100 | 49 | 43 | 0.9 | 1.7 | 0.00 | 1.70 | 0.60 | 81 | 1010.4 |
| 20260506145600 | 48 | 323 | 0.9 | 1.7 | 0.00 | 1.70 | 0.60 | 81 | 1010.5 |
| 20260506145100 | 48 | 331 | 0.0 | 1.7 | 0.00 | 1.70 | 0.60 | 83 | 1010.5 |
| 20260506144558 | 48 | 319 | 0.0 | 1.7 | 0.00 | 1.70 | 0.60 | 84 | 1010.5 |
| 20260506144100 | 47 | 22 | 0.0 | 1.7 | 0.00 | 1.70 | 0.60 | 83 | 1010.4 |
| 20260506143600 | 47 | 23 | 0.0 | 1.7 | 0.00 | 1.70 | 0.60 | 85 | 1010.3 |
| 20260506143101 | 47 | 328 | 0.0 | 0.9 | 0.00 | 1.70 | 0.60 | 88 | 1010.3 |
| 20260506142601 | 47 | 355 | 0.0 | 1.7 | 0.00 | 1.70 | 0.60 | 89 | 1010.2 |
| 20260506142059 | 47 | 0 | 0.0 | 1.7 | 0.00 | 1.70 | 0.60 | 90 | 1010.2 |
| 20260506141600 | 46 | 264 | 0.0 | 1.7 | 0.00 | 1.70 | 0.60 | 91 | 1010.3 |
| 20260506141059 | 46 | 11 | 0.0 | 1.7 | 0.00 | 1.70 | 0.60 | 93 | 1010.4 |
| 20260506140600 | 46 | 238 | 0.0 | 0.9 | 0.00 | 1.70 | 0.60 | 94 | 1010.2 |
| 20260506135600 | 46 | 0 | 0.0 | 0.9 | 0.00 | 1.70 | 0.60 | 94 | 1010.2 |
| 20260506135100 | 46 | 0 | 0.0 | 0.9 | 0.00 | 1.70 | 0.60 | 94 | 1010.1 |
| 20260506134600 | 46 | 0 | 0.0 | 0.9 | 0.00 | 1.70 | 0.60 | 95 | 1010.1 |
| 20260506134100 | 46 | 0 | 0.0 | 0.9 | 0.00 | 1.70 | 0.60 | 95 | 1010.1 |
| 20260506133600 | 46 | 327 | 0.0 | 0.9 | 0.00 | 1.70 | 0.60 | 95 | 1010.1 |
| 20260506133100 | 46 | 0 | 0.0 | 0.9 | 0.00 | 1.70 | 0.60 | 95 | 1010.0 |
| 20260506132559 | 46 | 0 | 0.0 | 0.9 | 0.00 | 1.70 | 0.60 | 95 | 1010.0 |
| 20260506132100 | 46 | 262 | 0.0 | 0.9 | 0.00 | 1.70 | 0.60 | 95 | 1009.8 |
| 20260506131608 | 45 | 0 | 0.0 | 0.9 | 0.00 | 1.70 | 0.60 | 95 | 1009.7 |
| 20260506131100 | 46 | 262 | 0.0 | 0.9 | 0.00 | 1.70 | 0.60 | 95 | 1009.9 |
| 20260506130600 | 45 | 0 | 0.0 | 0.9 | 0.00 | 1.70 | 0.60 | 95 | 1009.7 |
| 20260506130059 | 45 | 0 | 0.0 | 0.9 | 0.00 | 1.70 | 0.60 | 95 | 1009.3 |
| 20260506125600 | 45 | 260 | 0.0 | 0.9 | 0.00 | 1.70 | 0.60 | 95 | 1009.2 |
| 20260506125059 | 45 | 260 | 0.0 | 0.9 | 0.00 | 1.70 | 0.60 | 95 | 1009.3 |
| 20260506124608 | 45 | 0 | 0.0 | 0.9 | 0.00 | 1.70 | 0.60 | 95 | 1009.4 |
| 20260506124100 | 45 | 0 | 0.0 | 0.9 | 0.00 | 1.70 | 0.60 | 95 | 1009.1 |
| 20260506123559 | 45 | 0 | 0.0 | 0.9 | 0.00 | 1.70 | 0.60 | 95 | 1009.1 |
| 20260506123114 | 45 | 0 | 0.0 | 0.0 | 0.00 | 1.70 | 0.60 | 95 | 1009.5 |
| 20260506122559 | 44 | 0 | 0.0 | 0.9 | 0.00 | 1.70 | 0.60 | 95 | 1009.2 |
| 20260506122100 | 44 | 0 | 0.0 | 0.9 | 0.00 | 1.70 | 0.60 | 95 | 1009.2 |
| 20260506121613 | 45 | 0 | 0.0 | 0.9 | 0.00 | 1.70 | 0.60 | 95 | 1009.2 |
| 20260506121100 | 45 | 0 | 0.0 | 0.0 | 0.00 | 1.70 | 0.60 | 95 | 1009.2 |
| 20260506120600 | 45 | 0 | 0.0 | 0.9 | 0.00 | 1.70 | 0.60 | 95 | 1009.2 |
| 20260506115600 | 45 | 0 | 0.0 | 0.0 | 0.00 | 1.70 | 0.60 | 95 | 1009.0 |
| 20260506115059 | 45 | 0 | 0.0 | 0.9 | 0.00 | 1.70 | 0.60 | 95 | 1009.0 |
| 20260506114558 | 45 | 0 | 0.0 | 0.9 | 0.00 | 1.70 | 0.60 | 95 | 1009.1 |
| 20260506114059 | 45 | 0 | 0.0 | 0.9 | 0.00 | 1.70 | 0.60 | 95 | 1008.9 |
| 20260506113600 | 45 | 0 | 0.0 | 0.9 | 0.00 | 1.70 | 0.60 | 95 | 1008.8 |
| 20260506113101 | 45 | 0 | 0.0 | 0.9 | 0.00 | 1.70 | 0.60 | 95 | 1008.7 |
| 20260506112601 | 45 | 4 | 0.0 | 1.7 | 0.00 | 1.70 | 0.60 | 95 | 1008.6 |
| 20260506112100 | 45 | 0 | 0.0 | 1.7 | 0.00 | 1.70 | 0.60 | 95 | 1008.7 |
| 20260506111602 | 45 | 61 | 0.0 | 0.9 | 0.00 | 1.70 | 0.60 | 95 | 1008.8 |
| 20260506111059 | 45 | 0 | 0.0 | 0.0 | 0.00 | 1.70 | 0.60 | 95 | 1008.6 |
| 20260506110559 | 45 | 0 | 0.0 | 0.9 | 0.00 | 1.70 | 0.60 | 95 | 1008.0 |
| 20260506110107 | 45 | 0 | 0.0 | 0.9 | 0.01 | 1.70 | 0.60 | 95 | 1008.4 |
| 20260506105600 | 45 | 0 | 0.0 | 0.9 | 0.01 | 1.70 | 0.60 | 95 | 1008.6 |
| 20260506105100 | 45 | 24 | 0.0 | 0.9 | 0.02 | 1.70 | 0.60 | 95 | 1008.3 |
| 20260506104609 | 45 | 74 | 0.0 | 0.9 | 0.02 | 1.70 | 0.60 | 95 | 1007.9 |
| 20260506104059 | 45 | 0 | 0.0 | 0.9 | 0.03 | 1.70 | 0.60 | 95 | 1007.9 |
| 20260506103559 | 45 | 0 | 0.0 | 0.9 | 0.04 | 1.70 | 0.60 | 95 | 1007.9 |
| 20260506103106 | 45 | 72 | 0.0 | 0.9 | 0.04 | 1.70 | 0.60 | 95 | 1007.7 |
| 20260506102601 | 45 | 0 | 0.0 | 0.9 | 0.05 | 1.70 | 0.60 | 95 | 1007.6 |
| 20260506102100 | 45 | 0 | 0.0 | 0.9 | 0.07 | 1.70 | 0.60 | 95 | 1007.4 |
| 20260506101637 | 45 | 0 | 0.0 | 0.9 | 0.08 | 1.70 | 0.60 | 95 | 1007.2 |
| 20260506101100 | 45 | 44 | 0.0 | 0.9 | 0.09 | 1.70 | 0.60 | 95 | 1007.5 |
| 20260506100559 | 45 | 0 | 0.0 | 0.9 | 0.10 | 1.70 | 0.60 | 95 | 1007.8 |
| 20260506100100 | 45 | 248 | 0.0 | 0.0 | 0.09 | 1.69 | 0.58 | 95 | 1007.9 |
| 20260506095602 | 45 | 0 | 0.0 | 0.9 | 0.09 | 1.69 | 0.58 | 95 | 1007.9 |
| 20260506095100 | 45 | 0 | 0.0 | 0.9 | 0.08 | 1.68 | 0.58 | 95 | 1008.1 |
| 20260506094600 | 45 | 0 | 0.0 | 0.0 | 0.09 | 1.68 | 0.58 | 95 | 1008.3 |
| 20260506094059 | 45 | 248 | 0.0 | 0.0 | 0.08 | 1.67 | 0.57 | 95 | 1008.3 |
| 20260506093600 | 45 | 0 | 0.0 | 0.0 | 0.07 | 1.66 | 0.56 | 95 | 1008.2 |
| 20260506093102 | 45 | 0 | 0.0 | 0.9 | 0.08 | 1.66 | 0.56 | 95 | 1008.1 |
| 20260506092601 | 45 | 0 | 0.0 | 0.9 | 0.08 | 1.65 | 0.55 | 95 | 1008.1 |
| 20260506092100 | 44 | 0 | 0.0 | 0.9 | 0.06 | 1.63 | 0.52 | 95 | 1008.2 |
| 20260506091559 | 45 | 0 | 0.0 | 0.0 | 0.07 | 1.62 | 0.52 | 95 | 1008.1 |
| 20260506091059 | 44 | 0 | 0.0 | 0.0 | 0.07 | 1.61 | 0.51 | 95 | 1008.0 |
| 20260506090600 | 44 | 0 | 0.0 | 0.0 | 0.07 | 1.60 | 0.50 | 95 | 1007.8 |
| 20260506090111 | 44 | 0 | 0.0 | 0.9 | 0.08 | 1.60 | 0.50 | 95 | 1007.7 |
| 20260506085559 | 44 | 0 | 0.0 | 0.9 | 0.09 | 1.60 | 0.50 | 95 | 1007.6 |
| 20260506085059 | 44 | 46 | 0.0 | 1.7 | 0.11 | 1.60 | 0.50 | 95 | 1007.6 |
| 20260506084633 | 44 | 0 | 0.0 | 1.7 | 0.11 | 1.59 | 0.49 | 95 | 1007.6 |
| 20260506084100 | 44 | 75 | 0.9 | 1.7 | 0.13 | 1.59 | 0.49 | 94 | 1007.5 |
| 20260506083559 | 44 | 0 | 0.0 | 1.7 | 0.15 | 1.59 | 0.49 | 95 | 1007.9 |
| 20260506083059 | 44 | 0 | 0.9 | 1.7 | 0.15 | 1.58 | 0.48 | 94 | 1007.8 |
| 20260506082558 | 44 | 25 | 0.0 | 1.7 | 0.15 | 1.57 | 0.47 | 95 | 1008.0 |
| 20260506082059 | 45 | 0 | 0.0 | 1.7 | 0.17 | 1.57 | 0.47 | 95 | 1008.2 |
| 20260506081613 | 44 | 0 | 0.0 | 1.7 | 0.17 | 1.55 | 0.45 | 95 | 1008.1 |
| 20260506081100 | 44 | 40 | 0.0 | 1.7 | 0.17 | 1.54 | 0.44 | 94 | 1008.1 |
| 20260506080600 | 45 | 7 | 0.0 | 0.9 | 0.17 | 1.53 | 0.43 | 94 | 1008.0 |
| 20260506073105 | 45 | 37 | 0.0 | 2.6 | 0.10 | 1.43 | 0.33 | 94 | 1007.6 |
| 20260506072615 | 45 | 345 | 0.0 | 1.7 | 0.10 | 1.42 | 0.32 | 94 | 1007.5 |
| 20260506072058 | 45 | 314 | 0.0 | 1.7 | 0.10 | 1.40 | 0.30 | 94 | 1007.5 |
| 20260506071601 | 45 | 353 | 0.0 | 2.6 | 0.10 | 1.38 | 0.28 | 94 | 1007.6 |
| 20260506071059 | 45 | 35 | 0.9 | 2.6 | 0.10 | 1.37 | 0.27 | 94 | 1007.5 |
| 20260506070559 | 45 | 73 | 0.0 | 1.7 | 0.10 | 1.36 | 0.26 | 94 | 1007.6 |
| 20260506062100 | 46 | 0 | 0.0 | 0.9 | 0.12 | 1.30 | 0.20 | 94 | 1007.7 |
| 20260506061600 | 46 | 0 | 0.0 | 0.9 | 0.11 | 1.28 | 0.18 | 95 | 1007.6 |
| 20260506061059 | 46 | 0 | 0.0 | 0.9 | 0.10 | 1.27 | 0.17 | 95 | 1007.7 |
| 20260506060600 | 46 | 0 | 0.0 | 1.7 | 0.10 | 1.26 | 0.16 | 95 | 1007.9 |
| 20260506051100 | 47 | 61 | 0.9 | 2.6 | 0.06 | 1.16 | 0.07 | 94 | 1008.5 |
| 20260506050559 | 47 | 37 | 0.0 | 1.7 | 0.05 | 1.16 | 0.06 | 94 | 1008.5 |
| 20260506050117 | 47 | 79 | 0.0 | 1.7 | 0.06 | 1.16 | 0.06 | 94 | 1008.6 |
| 20260506045059 | 47 | 30 | 0.9 | 2.6 | 0.07 | 1.15 | 0.05 | 94 | 1008.6 |
| 20260506044600 | 47 | 0 | 0.9 | 2.6 | 0.08 | 1.15 | 0.05 | 94 | 1008.5 |
| 20260506044058 | 48 | 32 | 0.9 | 1.7 | 0.08 | 1.15 | 0.05 | 95 | 1008.7 |
| 20260506043559 | 48 | 41 | 0.0 | 1.7 | 0.08 | 1.14 | 0.04 | 95 | 1008.7 |
| 20260506043101 | 48 | 46 | 0.9 | 1.7 | 0.08 | 1.14 | 0.04 | 94 | 1008.7 |
| 20260506042559 | 48 | 7 | 0.9 | 1.7 | 0.08 | 1.13 | 0.03 | 94 | 1008.7 |
| 20260506042058 | 48 | 75 | 0.0 | 1.7 | 0.08 | 1.13 | 0.03 | 95 | 1008.9 |
| 20260506041606 | 48 | 88 | 0.9 | 1.7 | 0.08 | 1.12 | 0.02 | 95 | 1008.8 |
| 20260506041059 | 48 | 31 | 0.9 | 1.7 | 0.07 | 1.11 | 0.01 | 95 | 1008.9 |
| 20260506040559 | 48 | 0 | 0.0 | 0.0 | 0.08 | 1.11 | 0.01 | 95 | 1009.0 |
| 20260506040059 | 48 | 0 | 0.0 | 0.0 | 0.08 | 1.10 | 0.00 | 95 | 1008.9 |
| 20260506035600 | 48 | 0 | 0.0 | 0.9 | 0.09 | 1.09 | 1.09 | 95 | 1008.9 |
| 20260506035101 | 48 | 0 | 0.0 | 0.9 | 0.10 | 1.08 | 1.08 | 95 | 1009.1 |
| 20260506034603 | 48 | 0 | 0.0 | 1.7 | 0.10 | 1.07 | 1.07 | 95 | 1009.1 |
| 20260506034059 | 48 | 0 | 0.0 | 1.7 | 0.12 | 1.07 | 1.07 | 95 | 1009.3 |
| 20260506033600 | 48 | 70 | 0.9 | 1.7 | 0.13 | 1.05 | 1.05 | 95 | 1009.1 |
| 20260506033059 | 48 | 24 | 0.0 | 1.7 | 0.20 | 1.05 | 1.05 | 94 | 1009.1 |
| 20260506032602 | 48 | 0 | 0.0 | 0.9 | 0.22 | 1.04 | 1.04 | 95 | 1009.3 |
| 20260506032102 | 48 | 70 | 0.0 | 0.0 | 0.24 | 1.04 | 1.04 | 94 | 1009.4 |
| 20260506031604 | 49 | 0 | 0.0 | 0.9 | 0.25 | 1.04 | 1.04 | 94 | 1009.5 |
| 20260506031101 | 49 | 0 | 0.0 | 0.9 | 0.27 | 1.04 | 1.04 | 94 | 1009.5 |
| 20260506030600 | 49 | 0 | 0.0 | 0.9 | 0.27 | 1.03 | 1.03 | 95 | 1009.6 |
| 20260506030059 | 49 | 0 | 0.0 | 0.9 | 0.28 | 1.02 | 1.02 | 95 | 1009.8 |
| 20260506025600 | 49 | 46 | 0.0 | 0.9 | 0.27 | 1.00 | 1.00 | 95 | 1009.4 |
| 20260506025100 | 49 | 292 | 0.0 | 0.0 | 0.27 | 0.98 | 0.98 | 95 | 1009.4 |
| 20260506024608 | 49 | 0 | 0.0 | 0.0 | 0.28 | 0.97 | 0.97 | 94 | 1009.1 |
| 20260506024101 | 49 | 0 | 0.0 | 0.0 | 0.28 | 0.95 | 0.95 | 94 | 1009.0 |
| 20260506023600 | 49 | 0 | 0.0 | 0.0 | 0.27 | 0.92 | 0.92 | 94 | 1008.9 |
| 20260506023112 | 49 | 0 | 0.0 | 0.0 | 0.23 | 0.86 | 0.86 | 94 | 1009.0 |
| 20260506022559 | 49 | 0 | 0.0 | 0.0 | 0.22 | 0.83 | 0.83 | 94 | 1009.0 |
| 20260506022105 | 49 | 0 | 0.0 | 0.0 | 0.23 | 0.81 | 0.81 | 94 | 1009.0 |
| 20260506021602 | 49 | 0 | 0.0 | 0.0 | 0.22 | 0.79 | 0.79 | 94 | 1008.9 |
| 20260506021059 | 49 | 0 | 0.0 | 0.0 | 0.22 | 0.77 | 0.77 | 94 | 1008.8 |
| 20260506020600 | 49 | 0 | 0.0 | 0.0 | 0.21 | 0.76 | 0.76 | 94 | 1008.8 |
| 20260506020059 | 49 | 0 | 0.0 | 0.0 | 0.20 | 0.74 | 0.74 | 94 | 1008.8 |
| 20260506015601 | 49 | 0 | 0.0 | 0.0 | 0.19 | 0.73 | 0.73 | 94 | 1008.9 |
| 20260506015102 | 49 | 0 | 0.0 | 0.0 | 0.18 | 0.71 | 0.71 | 94 | 1008.8 |
| 20260506014601 | 49 | 0 | 0.0 | 0.0 | 0.16 | 0.69 | 0.69 | 94 | 1008.8 |
| 20260506014104 | 49 | 0 | 0.0 | 0.9 | 0.14 | 0.67 | 0.67 | 94 | 1008.9 |
| 20260506013600 | 49 | 0 | 0.0 | 0.9 | 0.12 | 0.65 | 0.65 | 94 | 1008.9 |
| 20260506013105 | 49 | 0 | 0.0 | 0.9 | 0.10 | 0.63 | 0.63 | 94 | 1008.8 |
| 20260506012603 | 49 | 0 | 0.0 | 1.7 | 0.08 | 0.61 | 0.61 | 94 | 1008.9 |
| 20260506012101 | 49 | 89 | 0.0 | 1.7 | 0.05 | 0.58 | 0.58 | 94 | 1008.7 |
| 20260506011606 | 49 | 0 | 0.0 | 0.0 | 0.05 | 0.57 | 0.57 | 94 | 1008.6 |
| 20260506011100 | 48 | 0 | 0.0 | 0.0 | 0.03 | 0.55 | 0.55 | 94 | 1008.6 |
| 20260506010600 | 48 | 0 | 0.0 | 0.9 | 0.04 | 0.55 | 0.55 | 94 | 1008.4 |
| 20260506010058 | 48 | 0 | 0.0 | 0.9 | 0.05 | 0.54 | 0.54 | 94 | 1008.6 |
| 20260506005600 | 48 | 32 | 0.0 | 0.0 | 0.07 | 0.54 | 0.54 | 94 | 1008.5 |
| 20260506005059 | 48 | 0 | 0.0 | 0.9 | 0.08 | 0.52 | 0.52 | 94 | 1008.6 |
| 20260506004601 | 48 | 0 | 0.0 | 0.9 | 0.09 | 0.52 | 0.52 | 94 | 1008.6 |
| 20260506004100 | 48 | 0 | 0.0 | 0.9 | 0.11 | 0.52 | 0.52 | 94 | 1008.6 |
| 20260506003600 | 49 | 0 | 0.0 | 0.9 | 0.12 | 0.52 | 0.52 | 94 | 1008.6 |
| 20260506003059 | 48 | 0 | 0.0 | 0.9 | 0.13 | 0.52 | 0.52 | 94 | 1008.5 |
| 20260506002600 | 48 | 0 | 0.0 | 1.7 | 0.14 | 0.52 | 0.52 | 94 | 1008.5 |
| 20260506002100 | 48 | 32 | 0.0 | 1.7 | 0.26 | 0.52 | 0.52 | 93 | 1008.3 |
| 20260506001600 | 49 | 33 | 0.0 | 1.7 | 0.29 | 0.52 | 0.52 | 93 | 1008.5 |
| 20260506001100 | 49 | 82 | 0.0 | 1.7 | 0.33 | 0.52 | 0.52 | 93 | 1008.5 |
| 20260506000600 | 49 | 0 | 0.0 | 1.7 | 0.33 | 0.51 | 0.51 | 93 | 1008.6 |
| 20260506000105 | 49 | 23 | 0.0 | 1.7 | 0.31 | 0.49 | 0.49 | 93 | 1008.8 |
| 20260505235601 | 49 | 0 | 0.0 | 1.7 | 0.29 | 0.47 | 0.47 | 93 | 1008.8 |
| 20260505235101 | 49 | 44 | 0.0 | 0.9 | 0.28 | 0.45 | 0.45 | 93 | 1008.9 |
| 20260505234559 | 49 | 0 | 0.0 | 1.7 | 0.27 | 0.44 | 0.44 | 93 | 1009.0 |
| 20260505234100 | 50 | 0 | 0.0 | 1.7 | 0.25 | 0.42 | 0.42 | 93 | 1008.7 |
| 20260505233600 | 50 | 56 | 0.0 | 3.5 | 0.25 | 0.41 | 0.41 | 93 | 1008.8 |
| 20260505233059 | 50 | 30 | 0.9 | 3.5 | 0.24 | 0.40 | 0.40 | 93 | 1008.7 |
| 20260505232600 | 50 | 72 | 0.9 | 2.6 | 0.23 | 0.39 | 0.39 | 93 | 1008.5 |
| 20260505232100 | 51 | 247 | 0.9 | 2.6 | 0.11 | 0.27 | 0.27 | 93 | 1009.4 |
| 20260505231600 | 51 | 58 | 0.0 | 3.5 | 0.08 | 0.23 | 0.23 | 93 | 1008.4 |
| 20260505231100 | 51 | 65 | 0.9 | 3.5 | 0.04 | 0.19 | 0.19 | 92 | 1008.3 |
| 20260505230600 | 51 | 19 | 0.9 | 2.6 | 0.03 | 0.18 | 0.18 | 92 | 1008.1 |
| 20260505230121 | 51 | 8 | 0.9 | 2.6 | 0.03 | 0.18 | 0.18 | 92 | 1008.1 |
| 20260505225558 | 51 | 56 | 0.9 | 2.6 | 0.03 | 0.18 | 0.18 | 92 | 1008.2 |
| 20260505225100 | 52 | 45 | 0.9 | 2.6 | 0.02 | 0.17 | 0.17 | 92 | 1008.0 |
| 20260505224558 | 52 | 56 | 0.0 | 3.5 | 0.03 | 0.17 | 0.17 | 92 | 1008.2 |
| 20260505224100 | 52 | 49 | 0.9 | 3.5 | 0.03 | 0.17 | 0.17 | 92 | 1008.0 |
| 20260505223600 | 53 | 28 | 0.0 | 2.6 | 0.02 | 0.16 | 0.16 | 92 | 1008.1 |
| 20260505223058 | 53 | 311 | 0.9 | 2.6 | 0.02 | 0.16 | 0.16 | 91 | 1008.3 |
| 20260505222601 | 53 | 25 | 0.9 | 2.6 | 0.03 | 0.16 | 0.16 | 91 | 1008.3 |
| 20260505222101 | 54 | 25 | 0.9 | 2.6 | 0.09 | 0.16 | 0.16 | 91 | 1008.2 |
| 20260505221604 | 55 | 58 | 0.0 | 2.6 | 0.09 | 0.15 | 0.15 | 91 | 1008.2 |
| 20260505221100 | 56 | 334 | 0.9 | 2.6 | 0.09 | 0.15 | 0.15 | 91 | 1008.1 |
| 20260505220602 | 57 | 323 | 0.0 | 1.7 | 0.09 | 0.15 | 0.15 | 93 | 1008.3 |
| 20260505220104 | 57 | 0 | 0.0 | 0.0 | 0.09 | 0.15 | 0.15 | 93 | 1008.1 |
| 20260505215601 | 57 | 0 | 0.0 | 0.0 | 0.09 | 0.15 | 0.15 | 92 | 1008.1 |
| 20260505215100 | 57 | 0 | 0.0 | 0.0 | 0.09 | 0.15 | 0.15 | 92 | 1008.0 |
| 20260505214610 | 57 | 0 | 0.0 | 0.0 | 0.10 | 0.14 | 0.14 | 92 | 1008.1 |
| 20260505214059 | 57 | 0 | 0.0 | 0.0 | 0.11 | 0.14 | 0.14 | 92 | 1008.1 |
| 20260505213600 | 57 | 0 | 0.0 | 0.9 | 0.12 | 0.14 | 0.14 | 92 | 1008.2 |
| 20260505213059 | 57 | 0 | 0.0 | 0.9 | 0.13 | 0.14 | 0.14 | 92 | 1008.2 |
| 20260505212600 | 57 | 0 | 0.0 | 0.9 | 0.12 | 0.13 | 0.13 | 92 | 1007.9 |
| 20260505212101 | 57 | 17 | 0.0 | 0.0 | 0.06 | 0.07 | 0.07 | 91 | 1008.3 |
| 20260505211605 | 57 | 0 | 0.0 | 0.0 | 0.05 | 0.06 | 0.06 | 91 | 1008.0 |
| 20260505211102 | 57 | 0 | 0.0 | 0.0 | 0.05 | 0.06 | 0.06 | 90 | 1007.9 |
| 20260505210601 | 57 | 0 | 0.0 | 0.9 | 0.05 | 0.06 | 0.06 | 90 | 1007.9 |
| 20260505210106 | 57 | 0 | 0.0 | 0.9 | 0.05 | 0.06 | 0.06 | 90 | 1007.8 |
| 20260505205602 | 58 | 0 | 0.0 | 0.9 | 0.05 | 0.06 | 0.06 | 89 | 1007.9 |
| 20260505205101 | 58 | 0 | 0.0 | 1.7 | 0.05 | 0.06 | 0.06 | 89 | 1007.9 |
| 20260505204605 | 59 | 0 | 0.0 | 1.7 | 0.03 | 0.04 | 0.04 | 88 | 1007.9 |
| 20260505204101 | 59 | 309 | 0.0 | 1.7 | 0.02 | 0.03 | 0.03 | 88 | 1007.9 |
| 20260505203603 | 60 | 27 | 0.0 | 0.9 | 0.01 | 0.02 | 0.02 | 88 | 1007.9 |
| 20260505203108 | 60 | 0 | 0.0 | 0.9 | 0.00 | 0.01 | 0.01 | 87 | 1007.9 |
| 20260505202600 | 60 | 252 | 0.0 | 0.0 | 0.00 | 0.01 | 0.01 | 87 | 1007.6 |
| 20260505202059 | 60 | 0 | 0.0 | 0.0 | 0.00 | 0.01 | 0.01 | 87 | 1007.6 |
| 20260505201600 | 60 | 0 | 0.0 | 0.0 | 0.00 | 0.01 | 0.01 | 89 | 1007.6 |
| 20260505201100 | 60 | 0 | 0.0 | 0.0 | 0.01 | 0.01 | 0.01 | 88 | 1007.6 |
| 20260505200601 | 60 | 0 | 0.0 | 0.0 | 0.01 | 0.01 | 0.01 | 88 | 1007.7 |
| 20260505200110 | 60 | 0 | 0.0 | 0.0 | 0.01 | 0.01 | 0.01 | 88 | 1007.8 |
| 20260505195600 | 60 | 0 | 0.0 | 0.0 | 0.01 | 0.01 | 0.01 | 87 | 1007.7 |
| 20260505195100 | 60 | 0 | 0.0 | 0.0 | 0.01 | 0.01 | 0.01 | 87 | 1007.8 |
| 20260505194603 | 60 | 0 | 0.0 | 0.0 | 0.01 | 0.01 | 0.01 | 87 | 1007.7 |
| 20260505194100 | 61 | 0 | 0.0 | 0.0 | 0.01 | 0.01 | 0.01 | 88 | 1007.6 |
| 20260505193601 | 60 | 0 | 0.0 | 0.0 | 0.01 | 0.01 | 0.01 | 86 | 1007.6 |
| 20260505193105 | 61 | 0 | 0.0 | 0.0 | 0.01 | 0.01 | 0.01 | 86 | 1007.6 |
| 20260505192600 | 61 | 0 | 0.0 | 0.0 | 0.01 | 0.01 | 0.01 | 85 | 1007.7 |
| 20260505192100 | 61 | 0 | 0.0 | 0.0 | 0.01 | 0.01 | 0.01 | 83 | 1008.0 |
| 20260505191608 | 61 | 0 | 0.0 | 0.9 | 0.00 | 0.00 | 0.00 | 81 | 1008.1 |
| 20260505191100 | 62 | 0 | 0.0 | 1.7 | 0.00 | 0.00 | 0.00 | 79 | 1008.1 |
| 20260505190559 | 62 | 0 | 0.0 | 1.7 | 0.00 | 0.00 | 0.00 | 77 | 1008.3 |
| 20260505190100 | 63 | 248 | 0.9 | 1.7 | 0.00 | 0.00 | 0.00 | 74 | 1008.3 |
| 20260505185603 | 64 | 247 | 0.0 | 2.6 | 0.00 | 0.00 | 0.00 | 71 | 1008.3 |
| 20260505185101 | 64 | 0 | 0.9 | 2.6 | 0.00 | 0.00 | 0.00 | 69 | 1008.1 |
| 20260505184559 | 64 | 235 | 0.9 | 1.7 | 0.00 | 0.00 | 0.00 | 68 | 1008.1 |
| 20260505184101 | 64 | 262 | 0.9 | 2.6 | 0.00 | 0.00 | 0.00 | 68 | 1008.1 |
| 20260505183600 | 65 | 245 | 0.9 | 2.6 | 0.00 | 0.00 | 0.00 | 67 | 1008.2 |
| 20260505183101 | 65 | 256 | 0.9 | 2.6 | 0.00 | 0.00 | 0.00 | 67 | 1008.1 |
| 20260505182600 | 65 | 0 | 0.0 | 0.9 | 0.00 | 0.00 | 0.00 | 67 | 1008.1 |
| 20260505182100 | 65 | 255 | 0.0 | 1.7 | 0.00 | 0.00 | 0.00 | 67 | 1008.1 |
| 20260505181600 | 65 | 0 | 0.0 | 1.7 | 0.00 | 0.00 | 0.00 | 66 | 1008.2 |
| 20260505181101 | 65 | 238 | 0.0 | 2.6 | 0.00 | 0.00 | 0.00 | 67 | 1008.1 |
| 20260505180600 | 65 | 236 | 0.9 | 2.6 | 0.00 | 0.00 | 0.00 | 66 | 1008.1 |
| 20260505180058 | 66 | 257 | 0.0 | 2.6 | 0.00 | 0.00 | 0.00 | 66 | 1007.9 |
| 20260505175601 | 66 | 267 | 0.0 | 2.6 | 0.00 | 0.00 | 0.00 | 66 | 1008.0 |
| 20260505175100 | 66 | 262 | 0.9 | 2.6 | 0.00 | 0.00 | 0.00 | 64 | 1007.9 |
| 20260505174603 | 66 | 295 | 0.9 | 4.3 | 0.00 | 0.00 | 0.00 | 63 | 1007.8 |
| 20260505174100 | 67 | 250 | 1.7 | 4.3 | 0.00 | 0.00 | 0.00 | 62 | 1007.8 |
| 20260505173600 | 67 | 245 | 0.9 | 3.5 | 0.00 | 0.00 | 0.00 | 61 | 1007.7 |
| 20260505173101 | 67 | 257 | 0.9 | 3.5 | 0.00 | 0.00 | 0.00 | 62 | 1007.7 |
| 20260505172600 | 68 | 285 | 1.7 | 5.2 | 0.00 | 0.00 | 0.00 | 60 | 1007.6 |
| 20260505172100 | 68 | 178 | 1.7 | 5.2 | 0.00 | 0.00 | 0.00 | 61 | 1007.7 |
| 20260505171601 | 67 | 206 | 0.9 | 5.2 | 0.00 | 0.00 | 0.00 | 62 | 1007.6 |
| 20260505171101 | 67 | 272 | 1.7 | 5.2 | 0.00 | 0.00 | 0.00 | 61 | 1007.6 |
| 20260505170600 | 67 | 231 | 0.9 | 4.3 | 0.00 | 0.00 | 0.00 | 61 | 1007.5 |
| 20260505165601 | 67 | 250 | 1.7 | 4.3 | 0.00 | 0.00 | 0.00 | 61 | 1007.6 |
| 20260505165101 | 67 | 257 | 1.7 | 4.3 | 0.00 | 0.00 | 0.00 | 61 | 1007.5 |
| 20260505164602 | 67 | 0 | 0.0 | 4.3 | 0.00 | 0.00 | 0.00 | 63 | 1007.5 |
| 20260505164100 | 67 | 259 | 0.9 | 4.3 | 0.00 | 0.00 | 0.00 | 62 | 1007.4 |
| 20260505163601 | 68 | 262 | 0.9 | 2.6 | 0.00 | 0.00 | 0.00 | 62 | 1007.4 |
| 20260505163104 | 68 | 237 | 0.9 | 3.5 | 0.00 | 0.00 | 0.00 | 60 | 1007.4 |
| 20260505162601 | 68 | 300 | 1.7 | 3.5 | 0.00 | 0.00 | 0.00 | 61 | 1007.3 |
| 20260505162102 | 68 | 249 | 1.7 | 3.5 | 0.00 | 0.00 | 0.00 | 60 | 1007.3 |
| 20260505161610 | 69 | 236 | 0.9 | 5.2 | 0.00 | 0.00 | 0.00 | 61 | 1007.3 |
| 20260505161101 | 68 | 250 | 0.9 | 5.2 | 0.00 | 0.00 | 0.00 | 60 | 1007.2 |
| 20260505160601 | 69 | 280 | 1.7 | 5.2 | 0.00 | 0.00 | 0.00 | 59 | 1007.1 |